Location: Br�ttisellen
(47.4227°N, 8.6287°E)
Time: 22:52:20
(UTC+00:00)

USA 186 - Pass Details

Date: 09 April 2020
Orbit: 262 x 445 km, 96.9° (Epoch: 03 June)

Event Time Altitude Azimuth Distance (km) Brightness Sun altitude
Rises 18:06:57 0° 137° (SE) 2,403 5.1 -0.8°
Reaches altitude 10° 18:09:17 10° 122° (ESE) 1,514 4.0 -1.2°
Drops below altitude 10° 18:14:18 10° 17° (NNE) 1,453 4.5 -2.0°
Enters shadow 19:10:11 -62° 171° (S) 11,692 9.0 -10.9°
Maximum altitude 19:42:44 22° 265° (W) 962 4.2 -15.8°
